Location: Mahannah Oil Field
(37.4664°N, 96.6003°W)
Time: 11:47:35
(UTC+00:00)

Altair - Pass Details

Date: 22 January 2021
Orbit: 1501 x 1682 km, 47.2° (Epoch: 24 February)

Event Time Altitude Azimuth Distance (km) Brightness Sun altitude
Exits shadow 09:44:59 24° 152° (SSE) 2,927 9.0 -45.8°
Maximum altitude 09:47:52 28° 127° (SE) 2,761 9.0 -45.2°
Drops below altitude 10° 09:55:51 10° 74° (ENE) 3,939 10.2 -43.6°
Sets 09:59:38 0° 64° (ENE) 4,937 10.9 -42.9°
